This demonstration page uses our WeatherBlox Daily Observations layout. Learn more.

Left ArrowRight Arrow

Hourly Observations for May 12, 2021

Temp ( °F °C ) Dew Point ( °F °C ) Humidity (%) Winds ( mph kmh ) Pressure ( in mb ) Visibility ( mi km ) Precip ( " mm )
12:15 am 00:15 Clear 54 12 30 -1 41 41 N 13 20 30.22 1023 10 16.0934 N/A
12:35 am 00:35 Clear 54 12 30 -1 41 41 N 15 24 30.23 1024 10 16.0934 N/A
12:55 am 00:55 Clear 52 11 30 -1 44 44 N 16 26 30.24 1024 10 16.0934 N/A
1:15 am 01:15 Clear 52 11 30 -1 44 44 NNW 16 26 30.25 1025 10 16.0934 N/A
1:35 am 01:35 Clear 52 11 30 -1 44 44 NNW 14 22 30.24 1024 10 16.0934 N/A
1:55 am 01:55 Clear 50 10 28 -2 43 43 NNW 15 24 30.25 1024 10 16.0934 N/A
2:15 am 02:15 Clear 50 10 30 -1 47 47 NNW 15 24 30.25 1024 10 16.0934 N/A
2:35 am 02:35 Clear 50 10 30 -1 47 47 NNW 15 24 30.26 1025 10 16.0934 N/A
2:55 am 02:55 Clear 48 9 30 -1 50 50 NNW 16 26 30.25 1024 10 16.0934 N/A
3:15 am 03:15 Clear 46 8 30 -1 53 53 NNW 9 15 30.26 1025 10 16.0934 N/A
3:35 am 03:35 Clear 46 8 30 -1 53 53 NNW 12 19 30.26 1025 10 16.0934 N/A
3:55 am 03:55 Clear 46 8 30 -1 53 53 N 8 13 30.27 1025 10 16.0934 N/A
4:15 am 04:15 Clear 46 8 30 -1 53 53 NW 7 11 30.27 1025 10 16.0934 N/A
4:35 am 04:35 Clear 46 8 30 -1 53 53 NW 5 7 30.28 1025 10 16.0934 N/A
4:55 am 04:55 Clear 46 8 30 -1 53 53 N N/A 30.29 1026 10 16.0934 N/A
5:15 am 05:15 Clear 45 7 32 undefined 61 61 NW 7 11 30.28 1025 10 16.0934 N/A
5:35 am 05:35 Clear 45 7 32 undefined 61 61 NW 7 11 30.28 1025 10 16.0934 N/A
5:55 am 05:55 Clear 45 7 32 undefined 61 61 WNW 8 13 30.28 1025 10 16.0934 N/A
6:15 am 06:15 Sunny 45 7 32 undefined 61 61 WNW 5 7 30.29 1026 10 16.0934 N/A
6:35 am 06:35 Sunny 45 7 32 undefined 61 61 WNW 6 9 30.29 1026 10 16.0934 N/A
6:55 am 06:55 Sunny 45 7 32 undefined 61 61 WNW 9 15 30.29 1026 10 16.0934 N/A
7:15 am 07:15 Sunny 46 8 32 undefined 57 57 NW 9 15 30.29 1026 10 16.0934 N/A
7:35 am 07:35 Sunny 46 8 32 undefined 57 57 NW 10 17 30.29 1026 10 16.0934 N/A
7:55 am 07:55 Sunny 46 8 32 undefined 57 57 N 8 13 30.29 1026 10 16.0934 N/A
8:15 am 08:15 Sunny 48 9 32 undefined 54 54 N 10 17 30.29 1026 10 16.0934 N/A
8:35 am 08:35 Sunny 48 9 32 undefined 54 54 NNW 10 17 30.3 1026 10 16.0934 N/A
8:55 am 08:55 Sunny 50 10 32 undefined 50 50 N 16 26 30.3 1026 10 16.0934 N/A
9:15 am 09:15 Sunny 50 10 34 1 54 54 NNW 13 20 30.31 1026 10 16.0934 N/A
9:35 am 09:35 Sunny 50 10 34 1 54 54 N 12 19 30.31 1026 10 16.0934 N/A
10:15 am 10:15 Sunny 50 10 36 2 58 58 N 10 17 30.3 1026 10 16.0934 N/A
10:35 am 10:35 Sunny 52 11 36 2 54 54 N 7 11 30.3 1026 10 16.0934 N/A
10:55 am 10:55 Sunny 52 11 37 3 58 58 NNW 9 15 30.3 1026 10 16.0934 N/A
11:15 am 11:15 Sunny 52 11 37 3 58 58 NNE 7 11 30.31 1027 10 16.0934 N/A
11:35 am 11:35 Sunny 54 12 37 3 54 54 NNW 10 17 30.31 1027 10 16.0934 N/A
11:55 am 11:55 Sunny 55 13 39 4 55 55 NW 8 13 30.31 1026 10 16.0934 N/A
12:15 pm 12:15 Sunny 55 13 41 5 59 59 N 8 13 30.29 1026 10 16.0934 N/A
12:35 pm 12:35 Sunny 57 14 41 5 55 55 NNW 14 22 30.29 1026 10 16.0934 N/A
12:55 pm 12:55 Sunny 57 14 41 5 55 55 NW 13 20 30.28 1025 10 16.0934 N/A
1:15 pm 13:15 Partly Cloudy 59 15 41 5 51 51 N 3 6 30.28 1025 10 16.0934 N/A
1:35 pm 13:35 Partly Cloudy 59 15 41 5 51 51 W 5 7 30.27 1025 10 16.0934 N/A
1:55 pm 13:55 Partly Cloudy 61 16 41 5 48 48 NNW 10 17 30.26 1025 10 16.0934 N/A
2:15 pm 14:15 Partly Cloudy 61 16 41 5 48 48 WNW 6 9 30.25 1024 10 16.0934 N/A
2:35 pm 14:35 Partly Cloudy 61 16 39 4 45 45 N N/A 30.25 1024 10 16.0934 N/A
2:55 pm 14:55 Mostly Cloudy 61 16 37 3 42 42 NNE 6 9 30.25 1024 10 16.0934 N/A
3:15 pm 15:15 Partly Cloudy 63 17 39 4 42 42 NNW 6 9 30.24 1024 10 16.0934 N/A
3:35 pm 15:35 Mostly Cloudy 63 17 37 3 39 39 NE 6 9 30.23 1024 10 16.0934 N/A
3:55 pm 15:55 Cloudy 63 17 37 3 39 39 NNE 3 6 30.23 1024 10 16.0934 N/A
4:15 pm 16:15 Mostly Cloudy 63 17 37 3 39 39 NE 9 15 30.22 1023 10 16.0934 N/A
4:35 pm 16:35 Partly Cloudy 63 17 39 4 42 42 N N/A 30.22 1023 10 16.0934 N/A
4:55 pm 16:55 Mostly Cloudy 63 17 37 3 39 39 NNE 8 13 30.21 1023 10 16.0934 N/A
5:15 pm 17:15 Partly Cloudy 63 17 37 3 39 39 NNE 6 9 30.21 1023 10 16.0934 N/A
5:35 pm 17:35 Partly Cloudy 64 18 37 3 37 37 NNE 7 11 30.2 1023 10 16.0934 N/A
5:55 pm 17:55 Partly Cloudy 64 18 36 2 34 34 NE 5 7 30.2 1023 10 16.0934 N/A
6:15 pm 18:15 Sunny 64 18 37 3 37 37 N 3 6 30.2 1023 10 16.0934 N/A
6:35 pm 18:35 Sunny 63 17 36 2 37 37 NE 6 9 30.21 1023 10 16.0934 N/A
6:55 pm 18:55 Sunny 63 17 36 2 37 37 NE 5 7 30.21 1023 10 16.0934 N/A
7:15 pm 19:15 Sunny 63 17 36 2 37 37 NNE 3 6 30.21 1023 10 16.0934 N/A
7:35 pm 19:35 Sunny 63 17 36 2 37 37 NNE 3 6 30.21 1023 10 16.0934 N/A
7:55 pm 19:55 Sunny 63 17 36 2 37 37 N 3 6 30.21 1023 10 16.0934 N/A
8:15 pm 20:15 Clear 61 16 36 2 39 39 N N/A 30.22 1023 10 16.0934 N/A
8:35 pm 20:35 Clear 59 15 37 3 45 45 N N/A 30.23 1024 10 16.0934 N/A
8:55 pm 20:55 Clear 55 13 41 5 59 59 NW 3 6 30.23 1024 10 16.0934 N/A
9:15 pm 21:15 Clear 54 12 41 5 63 63 N N/A 30.24 1024 10 16.0934 N/A
9:35 pm 21:35 Clear 52 11 39 4 62 62 NW 3 6 30.24 1024 10 16.0934 N/A
9:55 pm 21:55 Clear 50 10 41 5 71 71 N N/A 30.25 1024 10 16.0934 N/A
10:15 pm 22:15 Clear 50 10 41 5 71 71 N N/A 30.26 1025 10 16.0934 N/A
10:35 pm 22:35 Clear 50 10 41 5 71 71 WNW 3 6 30.26 1025 10 16.0934 N/A
10:55 pm 22:55 Mostly Cloudy 46 8 41 5 82 82 W 3 6 30.26 1025 10 16.0934 N/A
11:15 pm 23:15 Cloudy 50 10 41 5 71 71 N N/A 30.26 1025 10 16.0934 N/A
11:35 pm 23:35 Partly Cloudy 46 8 41 5 82 82 WNW 5 7 30.26 1025 10 16.0934 N/A
11:55 pm 23:55 Partly Cloudy 46 8 41 5 82 82 NW 5 7 30.26 1025 10 16.0934 N/A

Powered by AerisWeather